Location: G�migny
(47.9646°N, 1.6950°E)
Time: 18:45:45
(UTC+00:00)

STARLINK-54 - Pass Details

Date: 23 October 2019
Orbit: 548 x 551 km, 53.0° (Epoch: 17 November)

Event Time Altitude Azimuth Distance (km) Brightness Sun altitude
Rises 19:01:05 0° 295° (WNW) 2,720 8.4 -22.5°
Reaches altitude 10° 19:03:20 10° 298° (WNW) 1,825 7.2 -22.8°
Enters shadow 19:07:08 59° 355° (N) 636 3.9 -23.5°
